Terug naar catalogus

SL-12 R/B(2)

ActiefHEO
NORAD 24815·ROCKET BODY·🇷🇺 Russia

Gelanceerd May 24, 1997 vanaf Baikonur Cosmodrome

Loading…

Volgende Passages (komende 24 uur)

TLE

VersSource: Space-Track

Epoch: Sep 13, 2026, 09:16 UTC

1 24815U 97026D   26256.38657459 -.00000110  00000-0  00000-0 0  9995
2 24815  19.2588 359.8479 5343700  96.9705 334.2122  1.89869082203225

Volg SL-12 R/B(2) in realtime met AllMySat

Download on the App Store